星链-35497(STARLINK-35497)

导读

STARLINK-35497是美国于2025年10月29日发射的星链系列卫星,隶属于SpaceX公司主导的星链互联网星座项目。星链星座旨在为全球范围用户提供高速低延迟的宽带互联网服务,该卫星入轨后将和同系列其他卫星协同,补充完善星座服务覆盖能力,推动全球网络覆盖建设。

Basic Information
目录编号:
66241
目录名称:
STARLINK-35497
国际标识:
2025-245H
轨道中心:
EARTH
卫星名称:
星链-35497
卫星全名:
星链-35497(STARLINK-35497)
卫星状态:
在轨 (已飞行311 天)
发射日期:
2025-10-29 UTC
国别 :
美国 (US)
星等 :
--
Orbit Information
数据来源 国际轨道数据
星历时间: 2026-09-05T12:50:52+0800
4小时前
查看轨道信息
半长轴: 6841.02km
偏心率: 0.0001293
轨道倾角: 53.158°
近地点辐角 303.914°
升交点赤经 169.162°
平近点角 56.174°
近地点: 461.998km
远地点: 463.768km
周期: 93.851分钟
每日圈数: 15.343398
Detailed Information
固有亮度:
5
最大亮度:
2.5
卫星平台:
Starlink V1.0
覆盖范围:
全球
运营商:
太空探索技术公司
运营商所在国:
美国
制造商(研发单位):
太空探索技术公司
制造商所在国:
美国
使用方式:
暂无
Satellite Introduction
Starlink 计划是 SpaceX 推出的全球卫星互联网项目,通过发射低轨道卫星,为全球尤其是偏远地区提供高速、低延迟的互联网服务。自 2019 年起,Starlink 已部署数千颗卫星,旨在缩小全球数字鸿沟,推动互联网普及。该项目还为军事、航空等行业提供通信支持,带来广泛经济效益。
2D Orbit Map
3D Orbit Map
Orbit Altitude Analysis Chart
Orbit Inclination Analysis Chart
Orbit Comprehensive Analysis Chart
View Comprehensive Chart
Conjunction Data List
Event ID Objects TCA Miss Dist (km) Collision Risk Probability Collision Risk Index (CRI) Action
CDM_260907-145705-766306-624121
2026-09-07T
14:57:48+0000
0.220 km
中距离
5.779619E-4 高风险 0.9
CDM_260901-213505-742406-624123
OBJECT A (57424)
2026-09-01T
21:35:26+0000
1.140 km
极远距离
1.611885E-5 中风险 0.59
CDM_260907-165004-926106-624121
CS1 (49261)
2026-09-07T
16:50:53+0000
2.157 km
极远距离
2.349285E-6 低风险 0.42
CDM_260907-011205-286806-624121
2026-09-07T
01:12:30+0000
2.332 km
极远距离
1.643859E-6 低风险 0.39